[[{"header":{"parameterUnit":"m.s-1","parameterCategory":1,"la1":30.2991,"la2":30.254,"lo1":-89.0895,"lo2":-89.0444,"dy":0.0017,"dx":0.0017,"nx":28,"ny":28,"refTime":"2023-10-03T09:00:00:Z","depth":0,"parameterNumber":2,"parameterNumberName":"U-component_of_WINDS"},"data":[0,0,0,0,0,0,0,0,0,0,0,0,0,0,0,0,0,0,0,0,0,0,0,0,0,0,0,0,0,0,0,0,0,0,0,0,0,0,0,0,0,0,0,0,0,0,0,0,0,0,0,0,0,0,0,0,0,0,-6.8769,-6.8769,0,-6.8771,-6.8771,-6.8771,-6.8646,-6.8642,-6.8639,-6.8636,-6.8637,-6.864,-6.8644,0,0,0,0,0,0,0,0,0,0,0,0,0,-6.866,-6.8662,-6.8769,-6.8769,-6.8769,-6.8771,-6.8771,-6.8771,-6.8646,-6.8642,-6.8638,-6.8635,-6.8636,-6.864,-6.8644,0,0,0,0,0,0,0,0,0,0,0,0,0,-6.8689,-6.8663,-6.8769,-6.8707,-6.8702,-6.8771,-6.8771,-6.8771,-6.8647,-6.8642,-6.8637,-6.8633,-6.8635,-6.864,-6.8644,-6.8773,0,0,-6.8659,-6.8661,0,0,0,0,0,0,0,0,-6.8688,-6.8693,-6.8716,-6.8712,-6.8706,-6.8703,-6.8733,-6.8772,-6.8648,-6.8668,-6.8636,-6.863,-6.8663,-6.8665,-6.8677,-6.8773,-6.8773,-6.8659,-6.8662,-6.8664,-6.8665,0,0,0,0,0,0,0,-6.8686,-6.8692,-6.877,-6.8717,-6.871,-6.868,-6.8679,-6.874,-6.8693,-6.8666,-6.8657,-6.8659,-6.8659,-6.8672,-6.8676,-6.8773,-6.8659,-6.8663,-6.8666,-6.8668,-6.8976,-6.8981,0,0,0,0,0,0,-6.8692,-6.8692,-6.877,-6.877,-6.8684,-6.8686,-6.8685,-6.8709,-6.8692,-6.8685,-6.8663,-6.8653,-6.8667,-6.867,-6.8675,-6.8824,-6.8664,-6.8668,-6.8671,-6.897,-6.8977,-6.8983,0,0,0,0,0,0,-6.869,-6.87,-6.877,-6.8728,-6.8735,-6.8693,-6.8722,-6.8712,-6.8724,-6.869,-6.8681,-6.8684,-6.8663,-6.8669,-6.875,-6.8822,-6.867,-6.8675,-6.8964,-6.8972,-6.898,-6.9123,0,0,0,0,0,0,-6.8688,-6.87,-6.8748,-6.873,-6.8738,-6.8844,-6.8726,-6.8715,-6.8733,-6.872,-6.8708,-6.8701,-6.866,-6.8743,-6.8754,-6.8826,-6.8678,-6.8957,-6.8968,-6.8977,-6.9111,-6.9135,-6.9155,0,0,0,0,0,-6.8684,-6.8788,-6.8751,-6.8761,-6.8796,-6.8848,-6.8852,-6.8802,-6.8739,-6.8787,-6.8766,-6.8702,-6.8814,-6.8753,-6.8764,-6.8838,-6.8952,-6.8965,-6.8976,-6.9102,-6.913,-6.9154,0,0,0,0,0,0,-6.8814,-6.8784,-6.8743,-6.8844,-6.885,-6.8827,-6.8885,-6.8834,-6.8857,-6.8844,-6.8781,-6.8779,-6.8871,-6.8863,-6.8796,-6.8962,-6.8872,-6.8887,-6.8963,-6.899,-6.9011,-6.901,-6.8682,0,0,0,0,0,-6.8855,-6.8899,-6.8871,-6.8963,-6.8968,-6.8927,-6.8948,-6.8909,-6.8912,-6.8914,-6.8898,-6.8904,-6.894,-6.8965,-6.8997,-6.9111,-6.9107,-6.9168,-6.919,-6.9208,-6.9221,-6.9281,-6.9308,-6.9022,-6.9022,-6.9022,0,0,-6.8938,-6.8928,-6.8959,-6.8989,-6.8989,-6.9036,-6.893,-6.8984,-6.9019,-6.8922,-6.8997,-6.8987,-6.8989,-6.9088,-6.913,-6.9084,-6.9299,-6.9223,-6.9238,-6.9241,-6.9296,-6.9323,-6.9347,-6.9031,-6.9029,-6.9028,0,0,-6.9114,-6.9112,-6.9188,-6.9191,-6.9192,-6.9165,-6.9184,-6.917,-6.9159,-6.9234,-6.9162,-6.9204,-6.9268,-6.9272,-6.9283,-6.9467,-6.9409,-6.9479,-6.9591,-6.9651,-6.9673,-6.9693,-6.9757,-6.9781,-6.9493,-6.9493,-6.9493,0,-6.9218,-6.9286,-6.9233,-6.9293,-6.9309,-6.9225,-6.9302,-6.9308,-6.932,-6.9333,-6.9281,-6.9361,-6.9357,-6.9455,-6.95,-6.9513,-6.9532,-6.9478,-6.9674,-6.9694,-6.9711,-6.9771,-6.9796,-6.9501,-6.95,-6.9499,-6.9499,0,-6.9413,-6.9463,-6.9524,-6.9539,-6.9562,-6.963,-6.9588,-6.9618,-6.9579,-6.9558,-6.9636,-6.9629,-6.9657,-6.9679,-6.9641,-6.9773,-6.9744,-6.9685,-6.9592,-6.9747,-6.9803,-6.9826,-6.9513,-6.951,-6.9508,-6.9506,0,0,-6.9666,-6.9654,-6.9677,-6.9683,-6.9681,-6.9718,-6.9784,-6.9813,-6.9839,-6.9853,-6.9906,-6.9964,-6.991,-6.9922,-6.9885,-6.9938,-7.0083,-6.9872,-6.9871,-6.991,-7.0228,-7.027,-7.0298,-7.0046,-7.005,-7.0054,-7.0227,0,-6.9836,-6.9946,-6.9902,-7.0017,-7.0062,-6.9985,-7.0043,-7.0048,-7.0032,-7.0068,-7.0049,-7.0091,-7.0017,-7.0024,-7.0073,-7.0055,-7.0145,-7.0042,-7.0094,-7.0097,-7.0093,-7.0327,-7.0371,-7.0534,-7.0248,-7.0252,-7.0255,0,-7.0047,-7.0069,-7.0188,-7.018,-7.0197,-7.0249,-7.0273,-7.031,-7.0315,-7.0299,-7.0316,-7.0267,-7.0332,-7.0243,-7.0332,-7.0263,-7.0282,-7.0277,-7.0282,-7.0282,-7.0183,-7.0331,-7.0585,-7.0609,-7.0289,-7.0286,-7.0284,0,-7.0217,-7.0278,-7.0357,-7.0365,-7.0357,-7.0396,-7.0395,-7.0396,-7.0417,-7.0439,-7.0452,-7.0481,-7.0497,-7.0521,-7.0483,-7.0422,-7.0577,-7.0485,-7.0565,-7.0566,-7.0598,-7.0596,-7.0856,-7.0616,-7.0616,-7.0615,-7.0615,0,-7.0409,-7.0485,-7.0433,-7.0482,-7.0565,-7.0515,-7.0599,-7.0589,-7.0592,-7.0637,-7.0574,-7.0619,-7.0566,-7.0606,-7.0577,-7.0655,-7.0663,-7.0652,-7.0642,-7.0656,-7.0657,-7.0665,-7.0652,-7.0622,-7.062,-7.0619,-7.0618,0,-7.0612,-7.058,-7.0661,-7.0649,-7.0648,-7.071,-7.0699,-7.0744,-7.0724,-7.0783,-7.0794,-7.0764,-7.0807,-7.0773,-7.0816,-7.0796,-7.0899,-7.0875,-7.0896,-7.0889,-7.097,-7.0962,-7.1243,-7.1276,-7.1017,-7.102,-7.1022,0,-7.0734,-7.0791,-7.0785,-7.0812,-7.0815,-7.0858,-7.088,-7.0835,-7.086,-7.0873,-7.0916,-7.0955,-7.0983,-7.1058,-7.1039,-7.1073,-7.1047,-7.1144,-7.1051,-7.1063,-7.1046,-7.1042,-7.1047,-7.1161,-7.1164,-7.1167,-7.1169,0,-7.0955,-7.0938,-7.0971,-7.1001,-7.1029,-7.105,-7.1065,-7.1091,-7.1045,-7.1078,-7.1122,-7.1144,-7.119,-7.1229,-7.1256,-7.1255,-7.1205,-7.1199,-7.1218,-7.1231,-7.124,-7.1234,-7.0944,-7.1191,-7.1189,-7.1187,-7.1186,-7.1185,-7.1119,-7.1166,-7.117,-7.1211,-7.1219,-7.1236,-7.1277,-7.1264,-7.1301,-7.1333,-7.1306,-7.136,-7.1366,-7.1398,-7.1404,-7.1446,-7.1406,-7.1435,-7.1442,-7.1449,-7.146,-7.1237,-7.1451,-7.145,-7.145,-7.1449,-7.1449,0,-7.1335,-7.1335,-7.1373,-7.1397,-7.143,-7.1382,-7.1398,-7.1428,-7.1476,-7.1487,-7.1517,-7.1569,-7.1608,-7.1595,-7.1629,-7.1666,-7.1643,-7.1676,-7.1671,-7.1672,-7.1494,-7.1473,-7.1693,-7.1693,-7.1693,-7.1693,-7.1693,-7.1693,-7.145,-7.1527,-7.1511,-7.1592,-7.1591,-7.1644,-7.1657,-7.1673,-7.1681,-7.1743,-7.1775,-7.1767,-7.1768,-7.1803,-7.1837,-7.1832,-7.1847,-7.1888,-7.1875,-7.1708,-7.1684,-7.1661,-7.164,-7.1892,-7.1893,-7.2048,-7.2049,-7.2051]},{"header":{"parameterUnit":"m.s-1","parameterCategory":1,"la1":30.2991,"la2":30.254,"lo1":-89.0895,"lo2":-89.0444,"dy":0.0017,"dx":0.0017,"nx":28,"ny":28,"refTime":"2023-10-03T09:00:00:Z","depth":0,"parameterNumber":3,"parameterNumberName":"V-component_of_WINDS"},"data":[0,0,0,0,0,0,0,0,0,0,0,0,0,0,0,0,0,0,0,0,0,0,0,0,0,0,0,0,0,0,0,0,0,0,0,0,0,0,0,0,0,0,0,0,0,0,0,0,0,0,0,0,0,0,0,0,0,0,2.0178,2.0178,0,2.0177,2.0177,2.0177,2.0215,2.0216,2.0217,2.0218,2.0211,2.021,2.0208,0,0,0,0,0,0,0,0,0,0,0,0,0,2.021,2.0209,2.0178,2.0178,2.0178,2.0177,2.0177,2.0177,2.0214,2.0216,2.0217,2.0218,2.0211,2.021,2.0208,0,0,0,0,0,0,0,0,0,0,0,0,0,2.0201,2.0209,2.0178,2.0197,2.0199,2.0177,2.0177,2.0177,2.0214,2.0216,2.0217,2.0219,2.0212,2.021,2.0208,2.0167,0,0,2.0203,2.0202,0,0,0,0,0,0,0,0,2.0201,2.02,2.0194,2.0196,2.0198,2.0198,2.0186,2.0173,2.0214,2.0208,2.0218,2.0219,2.0205,2.0204,2.02,2.0167,2.0166,2.0203,2.0202,2.0201,2.0201,0,0,0,0,0,0,0,2.0202,2.02,2.0178,2.0194,2.0196,2.0204,2.0205,2.0183,2.0198,2.0209,2.0211,2.0211,2.0206,2.0201,2.02,2.0166,2.0203,2.0201,2.02,2.02,2.0101,2.0099,0,0,0,0,0,0,2.0201,2.02,2.0178,2.0178,2.0203,2.0203,2.0203,2.0196,2.0198,2.02,2.021,2.0213,2.0204,2.0202,2.02,2.0152,2.0201,2.0199,2.0198,2.0102,2.01,2.0099,0,0,0,0,0,0,2.0201,2.0198,2.0178,2.019,2.0188,2.02,2.0192,2.0195,2.0191,2.0199,2.0201,2.0203,2.0205,2.0202,2.0176,2.0153,2.0199,2.0197,2.0104,2.0102,2.0099,2.0057,0,0,0,0,0,0,2.0202,2.0198,2.0183,2.0189,2.0187,2.0154,2.0191,2.0194,2.0188,2.0192,2.0193,2.0194,2.0206,2.0178,2.0174,2.0151,2.0196,2.0106,2.0103,2.01,2.006,2.0053,2.0047,0,0,0,0,0,2.0203,2.017,2.0182,2.0179,2.0169,2.0153,2.0151,2.0167,2.0186,2.0171,2.0177,2.0194,2.0156,2.0175,2.0171,2.0147,2.0108,2.0104,2.01,2.0063,2.0054,2.0047,0,0,0,0,0,0,2.0158,2.0171,2.0185,2.0153,2.0152,2.0159,2.014,2.0157,2.0149,2.0152,2.017,2.017,2.014,2.0141,2.0162,2.0108,2.0135,2.0131,2.0108,2.01,2.0094,2.0094,2.0194,0,0,0,0,0,2.0145,2.0132,2.0144,2.0114,2.0113,2.0127,2.012,2.0133,2.0131,2.0131,2.0134,2.0131,2.0119,2.011,2.0099,2.0061,2.0062,2.0043,2.0037,2.0031,2.0026,2.0008,1.9999,2.0087,2.0087,2.0087,0,0,2.0116,2.0122,2.0112,2.0105,2.0106,2.0092,2.0126,2.0109,2.0098,2.0127,2.0103,2.0106,2.0104,2.0072,2.0058,2.0071,2.0003,2.0027,2.0022,2.002,2.0003,1.9995,1.9987,2.0084,2.0085,2.0085,0,0,2.0057,2.0061,2.0037,2.0038,2.004,2.0049,2.0044,2.005,2.0053,2.003,2.0052,2.0039,2.0017,2.0015,2.0011,1.9955,1.9971,1.995,1.9915,1.9897,1.989,1.9884,1.9864,1.9857,1.9946,1.9946,1.9946,0,2.0021,2.0002,2.0022,2.0005,2.0001,2.003,2.0006,2.0005,2.0002,1.9998,2.0015,1.9989,1.999,1.9958,1.9945,1.9941,1.9934,1.9949,1.989,1.9884,1.9879,1.986,1.9852,1.9943,1.9944,1.9944,1.9944,0,1.9958,1.9944,1.9925,1.9924,1.9918,1.9897,1.9914,1.9905,1.9919,1.9927,1.9903,1.9905,1.9896,1.989,1.9901,1.986,1.9869,1.9887,1.9914,1.9868,1.985,1.9843,1.994,1.9941,1.9942,1.9942,0,0,1.9867,1.9881,1.9873,1.9874,1.9879,1.9868,1.9849,1.9842,1.9835,1.9833,1.9816,1.9799,1.9817,1.9812,1.9825,1.9809,1.9764,1.9829,1.9829,1.9817,1.9719,1.9705,1.9696,1.9776,1.9775,1.9774,1.972,0,1.981,1.978,1.9798,1.9764,1.9752,1.9781,1.9764,1.9765,1.9773,1.9763,1.9771,1.9758,1.9783,1.9781,1.9766,1.9773,1.9745,1.9777,1.976,1.9759,1.9759,1.9687,1.9671,1.962,1.9713,1.9712,1.9711,0,1.9739,1.9736,1.9701,1.9711,1.9707,1.9691,1.9688,1.9678,1.968,1.9687,1.9684,1.9701,1.9682,1.9711,1.9685,1.9707,1.9701,1.9704,1.9702,1.97,1.9731,1.9682,1.9604,1.9596,1.97,1.9701,1.9702,0,1.9676,1.9664,1.9642,1.9642,1.9653,1.9641,1.9645,1.9649,1.9644,1.9641,1.9638,1.9631,1.9627,1.9622,1.9636,1.9656,1.9609,1.9638,1.9613,1.9612,1.96,1.96,1.9519,1.9598,1.9598,1.9598,1.9598,0,1.961,1.9587,1.9615,1.9601,1.9577,1.9599,1.9574,1.9581,1.9585,1.9572,1.9597,1.9584,1.9605,1.9594,1.9606,1.9583,1.9581,1.9585,1.9588,1.9583,1.9582,1.9578,1.9582,1.9596,1.9597,1.9597,1.9597,0,1.9535,1.9553,1.9531,1.9544,1.9547,1.9529,1.9539,1.9527,1.9538,1.9522,1.9519,1.9535,1.9524,1.9539,1.9529,1.9537,1.9506,1.9514,1.9505,1.9508,1.9481,1.9483,1.9393,1.9383,1.9469,1.9469,1.9468,0,1.9491,1.9475,1.9488,1.9482,1.9485,1.9476,1.9472,1.9494,1.9488,1.9491,1.9478,1.947,1.9465,1.9446,1.9456,1.9449,1.9457,1.9426,1.9456,1.9451,1.9456,1.9457,1.9455,1.942,1.9418,1.9418,1.9417,0,1.9411,1.9422,1.9416,1.9414,1.941,1.9408,1.9409,1.9403,1.9426,1.9419,1.9409,1.9405,1.9397,1.9388,1.9384,1.9387,1.9405,1.9408,1.9402,1.9395,1.9391,1.9393,1.9488,1.9409,1.941,1.9411,1.9411,1.9411,1.935,1.9338,1.9346,1.9339,1.9343,1.9343,1.9333,1.9343,1.9336,1.9333,1.9346,1.9333,1.9337,1.9334,1.9335,1.9325,1.9339,1.9329,1.9327,1.9324,1.932,1.9393,1.9325,1.9325,1.9325,1.9325,1.9326,0,1.9272,1.9279,1.9273,1.9274,1.9269,1.929,1.9292,1.9286,1.9276,1.9279,1.9274,1.9264,1.9256,1.9267,1.9261,1.9251,1.9259,1.9249,1.9249,1.925,1.9309,1.9315,1.9242,1.9242,1.9242,1.9242,1.9242,1.9242,1.923,1.921,1.9222,1.9204,1.9211,1.9201,1.9201,1.9201,1.9204,1.9192,1.9187,1.9195,1.9201,1.9197,1.9191,1.9194,1.919,1.9177,1.9183,1.9237,1.9245,1.9253,1.9259,1.9176,1.9176,1.9125,1.9124,1.9124]}]]